Regional Weather Roundup
Issued by NWS Kansas City/Pleasant Hill, MO

Home | Current Version | Previous Version | Text Only | Print | Product List | Glossary On
Versions: 1 2 3 4 5 6 7 8 9 10 11 12 13 14 15 16 17 18 19 20 21 22 23 24 25 26 27 28
000
ASUS43 KEAX 071010
RWREAX

WEATHER ROUNDUP FOR EASTERN KANSAS AND NORTHWEST MISSOURI
NATIONAL WEATHER SERVICE KANSAS CITY/PLEASANT HILL MO
400 AM CST WED DEC 07 2016

KSZ040-057-103>105-MOZ028-029-037-043-071100-
...KANSAS CITY METROPOLITAN AREA...

CITY           SKY/WX    TMP DP  RH WIND       PRES   REMARKS
K.C. INTL      CLOUDY    29  13  51 N7        30.18F WCI  22
K.C. DOWNTOWN  CLOUDY    32  12  43 N8        30.19F WCI  25
LEES SUMMIT    CLOUDY    32  13  45 N12       30.18F WCI  23
OLATHE - IXD   CLOUDY    31  14  49 NE6       30.18F WCI  25
OLATHE - OJC   CLOUDY    31   9  39 NE7       30.17F WCI  24
LAWRENCE       CLOUDY    30  13  49 NE6       30.19F WCI  24

$$

MOZ001>008-011>017-020>025-030>033-038>040-044>046-053-054-071100-
...NORTHERN AND CENTRAL MISSOURI...

CITY           SKY/WX    TMP DP  RH WIND       PRES   REMARKS
ST. JOSEPH     CLOUDY    25  16  68 N3        30.20F
MOSBY          CLOUDY    32  12  43 CALM      30.21F
WARRENSBURG    CLOUDY    32  19  59 N7        30.19F WCI  26
WHITEMAN AFB   PTCLDY    31  16  52 N13       30.17F WCI  22
CLINTON        CLOUDY    30  23  74 CALM      30.19F
SEDALIA        CLOUDY    32  16  51 N18       30.19F WCI  20
WARSAW         NOT AVBL
CHILLICOTHE      N/A     29  14  53 NW5       30.20F WCI  24
KIRKSVILLE     CLOUDY    28  14  55 W7        30.16R WCI  21

$$

MOZ041-047>049-056>058-063>065-088>090-097-071100-
...EASTERN AND SOUTHERN MISSOURI...

CITY           SKY/WX    TMP DP  RH WIND       PRES   REMARKS
ST. LOUIS INTL MOCLDY    30  18  60 W6        30.17R WCI  24
SPIRIT OF STL  PTCLDY    28  19  69 W5        30.19R WCI  23
COLUMBIA       CLOUDY    30  18  60 NW9       30.17S WCI  22
JEFFERSON CITY CLOUDY    27  21  78 CALM      30.20R
ROLLA          CLOUDY    25  17  72 CALM      30.16R
OSAGE BEACH    CLOUDY    31  16  54 CALM      30.19S
SPRINGFIELD    CLEAR     27  16  63 NE7       30.14S WCI  19
BRANSON        CLEAR     27  21  80 CALM      30.15F
JOPLIN         MOCLDY    28  20  71 E5        30.16F WCI  23
WEST PLAINS    CLEAR     29  18  63 N3        30.17R

$$

IAZ060-094-KSZ022-034>040-054-083-096-NEZ052-066-093-071100-
...KANSAS...SOUTHEAST NEBRASKA AND IOWA...

CITY           SKY/WX    TMP DP  RH WIND       PRES   REMARKS
TOPEKA         CLOUDY    30  14  51 NE6       30.19F WCI  24
MANHATTAN      PTCLDY    27  12  53 NE7       30.17F WCI  19
EMPORIA        CLOUDY    30  16  56 NE9       30.15S WCI  22
CHANUTE        CLOUDY    33  19  56 NE8       30.13F WCI  26
WICHITA        CLOUDY    34  16  47 E9        30.11F WCI  27
OMAHA          MOCLDY    18   9  68 N9        30.21R WCI   7
LINCOLN        CLOUDY    21   9  59 NW14      30.23R WCI   8
FALLS CITY     CLOUDY    24  14  65 N3        30.19F
LAMONI         CLOUDY    23  13  65 NW12      30.15S WCI  12
DES MOINES     CLOUDY    21  11  65 NW9       30.14F WCI  11

$$





USA.gov is the U.S. government's official web portal to all federal, state and local government web resources and services.